Location: Unspecified
(0.0000°N, 0.0000°E)
Time: 19:21:56
(UTC+02:00)

Palapa 6 Rocket - Visible Passes

Search period start: 26 June 2016 00:00
Search period end: 06 July 2016 00:00
Orbit: 485 x 1222 km, 22.7° (Epoch: 25 June)

Date Brightness Start Highest point End Pass type
(mag) Time Alt. Az. Time Alt. Az. Time Alt. Az.
26 Jun 5.3 05:30:46 24° ESE 05:30:46 24° ESE 05:32:39 10° ESE visible
26 Jun 4.4 07:12:45 15° WSW 07:16:01 26° SSW 07:19:54 10° SSE visible
26 Jun 6.7 21:48:15 10° NW 21:51:42 13° N 21:55:17 10° NNE visible
26 Jun 6.7 23:39:45 10° NNW 23:42:24 12° N 23:42:24 12° N visible
27 Jun 6.1 05:18:26 13° ESE 05:18:26 13° ESE 05:18:57 10° ESE visible
27 Jun 4.6 07:00:24 20° SW 07:02:09 24° SSW 07:06:04 10° SSE visible
27 Jun 6.7 21:34:57 10° NNW 21:37:49 12° N 21:40:48 10° NNE visible
27 Jun 6.7 23:25:42 10° NNW 23:28:55 13° N 23:29:05 13° N visible
28 Jun 4.8 06:47:57 22° SSW 06:48:16 22° SSW 06:52:13 10° SSE visible
28 Jun 6.7 21:21:49 10° NNW 21:23:58 11° N 21:26:11 10° NNE visible
28 Jun 6.6 23:11:39 10° NNW 23:15:00 13° N 23:15:41 13° NNE visible
29 Jun 5.1 06:35:22 20° S 06:35:22 20° S 06:38:21 10° SSE visible
29 Jun 6.7 21:09:00 10° N 21:10:07 10° N 21:11:15 10° N visible
29 Jun 6.5 22:57:35 10° NNW 23:01:05 13° N 23:02:15 13° NNE visible
30 Jun 5.5 06:22:42 16° S 06:22:42 16° S 06:24:28 10° SSE visible
30 Jun 6.5 22:43:32 10° NNW 22:47:10 14° NNE 22:48:46 13° NNE visible
01 Jul 5.9 06:09:55 12° SSE 06:09:55 12° SSE 06:10:33 10° SSE visible
01 Jul 6.4 22:29:30 10° NNW 22:33:14 14° NNE 22:35:17 13° NNE visible
02 Jul 6.9 00:16:56 10° NW 00:17:10 11° NW 00:17:10 11° NW visible
02 Jul 6.3 22:15:28 10° NNW 22:19:18 15° NNE 22:21:47 13° NE visible
03 Jul 6.7 00:02:44 10° NW 00:03:40 14° NW 00:03:40 14° NW visible
03 Jul 6.2 22:01:27 10° NNW 22:05:22 15° NNE 22:08:17 12° NE visible
03 Jul 6.5 23:48:35 10° NW 23:50:11 17° NNW 23:50:11 17° NNW visible
04 Jul 6.1 21:47:27 10° NNW 21:51:25 16° NNE 21:54:49 12° NE visible
04 Jul 6.3 23:34:29 10° NW 23:36:42 20° NNW 23:36:42 20° NNW visible
05 Jul 6.0 21:33:29 10° NNW 21:37:28 17° NNE 21:41:22 11° NE visible
05 Jul 6.0 23:20:26 10° NW 23:23:15 24° NNW 23:23:15 24° NNW visible
